RYR7ZA EPKK-EVRA

Flight info

Callsign RYR7ZA
Flight time 1h 21m
Altitude 35000
Route NAVUR DCT SUWGI M857 BOKSU DCT GUNTA
Aircraft B738/M-SDE2E3FGHIRWXY/LB1

Departure

Time 2026-05-07 09:10
Airport Kraków John Paul II International Airport (EPKK)

Arrival

Time 2026-05-07 10:32
Airport Riga International Airport (EVRA)
Time Latitude Longitude Altitude Speed Heading
2026-05-07 08:59 50.07288 19.79888 799 ft 0 kts 168°
2026-05-07 09:04 50.07306 19.79882 799 ft 4 kts 168°
2026-05-07 09:05 50.07333 19.79873 799 ft 4 kts 168°
2026-05-07 09:05 50.07354 19.79866 799 ft 4 kts 155°
2026-05-07 09:05 50.07370 19.79841 799 ft 4 kts 97°
2026-05-07 09:05 50.07367 19.79805 799 ft 3 kts 78°
2026-05-07 09:06 50.07367 19.79801 799 ft 0 kts 78°
2026-05-07 09:07 50.07368 19.79806 799 ft 3 kts 78°
2026-05-07 09:08 50.07383 19.79917 799 ft 18 kts 77°
2026-05-07 09:08 50.07416 19.80138 799 ft 22 kts 76°
2026-05-07 09:08 50.07454 19.80359 799 ft 21 kts 50°
2026-05-07 09:08 50.07588 19.80421 799 ft 20 kts 352°
2026-05-07 09:09 50.07724 19.80374 799 ft 20 kts 348°
2026-05-07 09:09 50.07856 19.80331 799 ft 19 kts 348°
2026-05-07 09:09 50.07983 19.80286 798 ft 18 kts 344°
2026-05-07 09:09 50.08000 19.80118 800 ft 21 kts 256°
2026-05-07 09:10 50.07919 19.79531 799 ft 90 kts 257°
2026-05-07 09:10 50.07740 19.78256 801 ft 149 kts 258°
2026-05-07 09:10 50.07505 19.76575 1323 ft 158 kts 258°
2026-05-07 09:10 50.07271 19.74934 2284 ft 147 kts 257°
2026-05-07 09:11 50.07045 19.73385 3052 ft 154 kts 257°
2026-05-07 09:11 50.06808 19.71761 3788 ft 154 kts 257°
2026-05-07 09:11 50.06558 19.70068 4277 ft 172 kts 257°
2026-05-07 09:11 50.06411 19.68066 4475 ft 202 kts 276°
2026-05-07 09:12 50.06867 19.65875 4763 ft 224 kts 292°
2026-05-07 09:12 50.07707 19.63698 5045 ft 249 kts 306°
2026-05-07 09:12 50.09189 19.62212 5589 ft 271 kts 342°
2026-05-07 09:12 50.11064 19.61677 6405 ft 277 kts 346°
2026-05-07 09:13 50.12999 19.61321 7139 ft 287 kts
2026-05-07 09:13 50.14903 19.62337 7925 ft 297 kts 31°
2026-05-07 09:13 50.16521 19.64372 8737 ft 301 kts 40°
2026-05-07 09:13 50.18093 19.66564 9525 ft 305 kts 40°
2026-05-07 09:14 50.19684 19.68792 10239 ft 311 kts 40°
2026-05-07 09:14 50.21366 19.71115 10473 ft 335 kts 40°
2026-05-07 09:14 50.23174 19.73591 10752 ft 354 kts 40°
2026-05-07 09:14 50.25049 19.76151 11388 ft 360 kts 40°
2026-05-07 09:15 50.26951 19.78744 12114 ft 364 kts 40°
2026-05-07 09:15 50.28865 19.81355 12894 ft 366 kts 41°
2026-05-07 09:15 50.30797 19.83994 13589 ft 371 kts 41°
2026-05-07 09:15 50.32753 19.86668 14218 ft 375 kts 41°
2026-05-07 09:16 50.34854 19.89107 14837 ft 379 kts 25°
2026-05-07 09:16 50.37360 19.90283 15452 ft 378 kts
2026-05-07 09:16 50.40000 19.90391 16097 ft 380 kts 357°
2026-05-07 09:16 50.42660 19.90345 16693 ft 385 kts 357°
2026-05-07 09:17 50.45353 19.90329 17299 ft 389 kts 357°
2026-05-07 09:17 50.48070 19.90346 17913 ft 393 kts 358°
2026-05-07 09:17 50.50818 19.90382 18475 ft 397 kts 358°
2026-05-07 09:17 50.53587 19.90424 18985 ft 401 kts 358°
2026-05-07 09:18 50.56396 19.90468 19488 ft 405 kts 357°
2026-05-07 09:18 50.59228 19.90510 19963 ft 410 kts 357°
2026-05-07 09:18 50.62105 19.90550 20442 ft 415 kts 356°
2026-05-07 09:18 50.65000 19.90593 20976 ft 418 kts 356°
2026-05-07 09:19 50.67924 19.90652 21459 ft 422 kts 356°
2026-05-07 09:19 50.70872 19.90718 21941 ft 426 kts 356°
2026-05-07 09:19 50.73847 19.90783 22415 ft 430 kts 356°
2026-05-07 09:19 50.76820 19.90843 22876 ft 433 kts 356°
2026-05-07 09:20 50.79842 19.90895 23338 ft 437 kts 356°
2026-05-07 09:20 50.82891 19.90944 23742 ft 440 kts 356°
2026-05-07 09:20 50.85966 19.90995 24138 ft 443 kts 356°
2026-05-07 09:20 50.89058 19.91047 24537 ft 446 kts 356°
2026-05-07 09:21 50.92171 19.91074 24928 ft 448 kts 355°
2026-05-07 09:21 50.95297 19.91080 25301 ft 451 kts 355°
2026-05-07 09:21 50.98447 19.91088 25665 ft 454 kts 356°
2026-05-07 09:21 51.01608 19.91659 25983 ft 465 kts 14°
2026-05-07 09:22 51.04588 19.93751 26370 ft 470 kts 28°
2026-05-07 09:22 51.07441 19.96342 26801 ft 471 kts 29°
2026-05-07 09:22 51.10248 19.98957 27125 ft 475 kts 30°
2026-05-07 09:22 51.13109 20.01635 27428 ft 478 kts 29°
2026-05-07 09:23 51.15991 20.04319 27755 ft 481 kts 29°
2026-05-07 09:23 51.18884 20.06992 28105 ft 483 kts 29°
2026-05-07 09:23 51.21803 20.09673 28429 ft 485 kts 29°
2026-05-07 09:23 51.24736 20.12354 28742 ft 488 kts 29°
2026-05-07 09:24 51.27691 20.15053 29077 ft 489 kts 29°
2026-05-07 09:24 51.30651 20.17757 29428 ft 491 kts 29°
2026-05-07 09:24 51.33621 20.20473 29717 ft 493 kts 29°
2026-05-07 09:24 51.35604 20.22288 29885 ft 495 kts 29°
2026-05-07 09:25 51.38606 20.25041 30134 ft 498 kts 29°
2026-05-07 09:25 51.41614 20.27805 30382 ft 499 kts 29°
2026-05-07 09:25 51.44630 20.30582 30651 ft 500 kts 29°
2026-05-07 09:25 51.47648 20.33365 30994 ft 499 kts 29°
2026-05-07 09:26 51.50646 20.36134 31416 ft 496 kts 29°
2026-05-07 09:26 51.53635 20.38900 31770 ft 495 kts 29°
2026-05-07 09:26 51.56621 20.41667 32032 ft 496 kts 29°
2026-05-07 09:26 51.59612 20.44441 32311 ft 496 kts 29°
2026-05-07 09:27 51.62566 20.47186 32633 ft 495 kts 29°
2026-05-07 09:27 51.65540 20.49954 32984 ft 494 kts 29°
2026-05-07 09:27 51.71483 20.55498 33576 ft 493 kts 30°
2026-05-07 09:28 51.74450 20.58272 33859 ft 493 kts 30°
2026-05-07 09:28 51.77419 20.61051 34118 ft 492 kts 29°
2026-05-07 09:28 51.80371 20.63820 34399 ft 491 kts 29°
2026-05-07 09:28 51.83328 20.66597 34652 ft 490 kts 29°
2026-05-07 09:29 51.86271 20.69365 34871 ft 490 kts 29°
2026-05-07 09:29 51.92179 20.74935 34889 ft 493 kts 29°
2026-05-07 09:30 51.98081 20.80517 34871 ft 489 kts 29°
2026-05-07 09:30 52.03928 20.86065 34887 ft 486 kts 29°
2026-05-07 09:31 52.09764 20.91618 34886 ft 485 kts 29°
2026-05-07 09:31 52.15585 20.97173 34890 ft 485 kts 29°
2026-05-07 09:32 52.21366 21.02708 34890 ft 485 kts 29°
2026-05-07 09:32 52.27195 21.08306 34890 ft 486 kts 29°
2026-05-07 09:33 52.33031 21.13928 34884 ft 487 kts 29°
2026-05-07 09:33 52.38870 21.19570 34891 ft 488 kts 29°
2026-05-07 09:34 52.44713 21.25234 34898 ft 488 kts 29°
2026-05-07 09:34 52.50578 21.30936 34885 ft 491 kts 29°
2026-05-07 09:35 52.56446 21.36661 34905 ft 491 kts 29°
2026-05-07 09:35 52.62325 21.42413 34892 ft 491 kts 29°
2026-05-07 09:36 52.68151 21.48132 34889 ft 490 kts 29°
2026-05-07 09:36 52.73998 21.53889 34889 ft 489 kts 29°
2026-05-07 09:37 52.79825 21.59645 34898 ft 488 kts 29°
2026-05-07 09:37 52.85653 21.65420 34888 ft 487 kts 29°
2026-05-07 09:38 52.91461 21.71194 34888 ft 487 kts 29°
2026-05-07 09:38 52.97264 21.76980 34888 ft 486 kts 29°
2026-05-07 09:39 53.03049 21.82768 34890 ft 485 kts 29°
2026-05-07 09:39 53.08832 21.88571 34889 ft 485 kts 29°
2026-05-07 09:40 53.14604 21.94382 34873 ft 485 kts 29°
2026-05-07 09:40 53.20378 22.00212 34877 ft 485 kts 29°
2026-05-07 09:41 53.26113 22.06023 34885 ft 485 kts 29°
2026-05-07 09:41 53.31895 22.11900 34872 ft 487 kts 29°
2026-05-07 09:42 53.37688 22.17806 34880 ft 487 kts 30°
2026-05-07 09:42 53.43475 22.23727 34882 ft 488 kts 29°
2026-05-07 09:43 53.49266 22.29670 34867 ft 488 kts 30°
2026-05-07 09:43 53.55048 22.35623 34874 ft 488 kts 30°
2026-05-07 09:44 53.60835 22.41600 34870 ft 488 kts 30°
2026-05-07 09:44 53.66621 22.47597 34880 ft 488 kts 30°
2026-05-07 09:45 53.72364 22.53568 34869 ft 488 kts 30°
2026-05-07 09:45 53.78141 22.59594 34869 ft 488 kts 30°
2026-05-07 09:46 53.83911 22.65632 34873 ft 487 kts 30°
2026-05-07 09:46 53.89678 22.71688 34869 ft 488 kts 30°
2026-05-07 09:47 53.95453 22.77772 34869 ft 488 kts 30°
2026-05-07 09:47 54.01222 22.83869 34866 ft 488 kts 30°
2026-05-07 09:48 54.06993 22.89908 34867 ft 487 kts 26°
2026-05-07 09:48 54.13154 22.94350 34875 ft 483 kts 17°
2026-05-07 09:49 54.19456 22.98328 34871 ft 484 kts 17°
2026-05-07 09:49 54.25751 23.02493 34879 ft 486 kts 18°
2026-05-07 09:50 54.32101 23.06498 34864 ft 484 kts 10°
2026-05-07 09:50 54.38662 23.08731 34877 ft 480 kts
2026-05-07 09:51 54.45237 23.10663 34876 ft 479 kts
2026-05-07 09:51 54.51782 23.12671 34479 ft 474 kts
2026-05-07 09:51 54.55003 23.13699 34108 ft 469 kts
2026-05-07 09:52 54.58205 23.14735 33669 ft 467 kts
2026-05-07 09:52 54.61380 23.15770 33243 ft 463 kts
2026-05-07 09:52 54.64533 23.16801 32830 ft 459 kts
2026-05-07 09:52 54.67625 23.17813 32411 ft 456 kts
2026-05-07 09:53 54.70736 23.18831 32029 ft 453 kts
2026-05-07 09:53 54.73822 23.19842 31636 ft 449 kts
2026-05-07 09:53 54.76882 23.20845 31254 ft 446 kts
2026-05-07 09:53 54.79923 23.21843 30877 ft 443 kts
2026-05-07 09:54 54.82942 23.22835 30503 ft 440 kts
2026-05-07 09:54 54.85941 23.23822 30128 ft 437 kts
2026-05-07 09:54 54.88929 23.24806 29727 ft 435 kts
2026-05-07 09:54 54.91893 23.25784 29303 ft 432 kts
2026-05-07 09:55 54.94801 23.26746 28901 ft 429 kts
2026-05-07 09:55 54.97760 23.27726 28511 ft 426 kts
2026-05-07 09:55 55.00619 23.28674 28120 ft 423 kts
2026-05-07 09:55 55.03493 23.29629 27764 ft 419 kts
2026-05-07 09:56 55.06353 23.30580 27371 ft 417 kts
2026-05-07 09:56 55.09193 23.31526 26993 ft 414 kts
2026-05-07 09:56 55.12013 23.32466 26606 ft 412 kts
2026-05-07 09:56 55.14819 23.33403 26248 ft 410 kts
2026-05-07 09:57 55.17612 23.34336 25878 ft 408 kts
2026-05-07 09:57 55.20393 23.35267 25500 ft 405 kts
2026-05-07 09:57 55.23162 23.36196 25132 ft 403 kts
2026-05-07 09:57 55.25905 23.37118 24768 ft 401 kts
2026-05-07 09:58 55.28632 23.38035 24405 ft 398 kts
2026-05-07 09:58 55.31352 23.38951 24045 ft 396 kts
2026-05-07 09:58 55.34054 23.39862 23686 ft 395 kts
2026-05-07 09:58 55.36750 23.40772 23275 ft 394 kts
2026-05-07 09:59 55.39433 23.41680 22874 ft 391 kts
2026-05-07 09:59 55.42090 23.42580 22486 ft 389 kts
2026-05-07 09:59 55.44743 23.43481 22114 ft 386 kts
2026-05-07 09:59 55.47375 23.44376 21750 ft 383 kts
2026-05-07 10:00 55.49987 23.45264 21365 ft 381 kts
2026-05-07 10:00 55.52578 23.46147 21036 ft 378 kts
2026-05-07 10:00 55.55151 23.47024 20710 ft 376 kts
2026-05-07 10:00 55.57715 23.47899 20331 ft 374 kts
2026-05-07 10:01 55.60231 23.48759 19999 ft 372 kts
2026-05-07 10:01 55.62765 23.49627 19665 ft 371 kts
2026-05-07 10:01 55.65301 23.50497 19307 ft 371 kts
2026-05-07 10:01 55.67828 23.51364 18943 ft 369 kts
2026-05-07 10:02 55.70339 23.52226 18598 ft 367 kts
2026-05-07 10:02 55.72844 23.53088 18248 ft 365 kts
2026-05-07 10:02 55.75332 23.53946 17862 ft 364 kts
2026-05-07 10:02 55.77813 23.54802 17479 ft 361 kts
2026-05-07 10:03 55.80274 23.55653 17130 ft 359 kts
2026-05-07 10:03 55.82714 23.56498 16777 ft 356 kts
2026-05-07 10:03 55.85138 23.57338 16435 ft 353 kts
2026-05-07 10:03 55.87545 23.58173 16102 ft 351 kts
2026-05-07 10:04 55.89932 23.59002 15757 ft 348 kts
2026-05-07 10:04 55.92304 23.59827 15449 ft 346 kts
2026-05-07 10:04 55.94666 23.60650 15096 ft 344 kts
2026-05-07 10:04 55.97015 23.61468 14780 ft 342 kts
2026-05-07 10:05 55.99347 23.62282 14456 ft 340 kts
2026-05-07 10:05 56.01653 23.63089 14236 ft 335 kts
2026-05-07 10:05 56.03933 23.63887 13941 ft 332 kts
2026-05-07 10:05 56.06201 23.64682 13618 ft 331 kts
2026-05-07 10:06 56.08454 23.65471 13264 ft 329 kts
2026-05-07 10:06 56.10669 23.66248 12915 ft 328 kts
2026-05-07 10:06 56.12899 23.67032 12584 ft 326 kts
2026-05-07 10:06 56.15125 23.67815 12245 ft 325 kts
2026-05-07 10:07 56.17339 23.68595 11907 ft 323 kts
2026-05-07 10:07 56.19540 23.69372 11569 ft 322 kts
2026-05-07 10:07 56.21739 23.70149 11247 ft 321 kts
2026-05-07 10:07 56.23931 23.70924 10916 ft 320 kts
2026-05-07 10:08 56.26113 23.71696 10594 ft 319 kts
2026-05-07 10:08 56.28287 23.72466 10280 ft 318 kts
2026-05-07 10:08 56.30213 23.73151 10154 ft 311 kts
2026-05-07 10:08 56.32311 23.73898 10009 ft 303 kts
2026-05-07 10:09 56.34365 23.74629 9781 ft 299 kts
2026-05-07 10:09 56.36405 23.75354 9487 ft 297 kts
2026-05-07 10:09 56.38429 23.76174 9074 ft 301 kts 11°
2026-05-07 10:09 56.40462 23.77200 8643 ft 305 kts 13°
2026-05-07 10:10 56.42502 23.78273 8203 ft 308 kts 13°
2026-05-07 10:10 56.44564 23.79354 7743 ft 308 kts 14°
2026-05-07 10:10 56.46611 23.80415 7295 ft 303 kts 14°
2026-05-07 10:10 56.48622 23.81446 6897 ft 297 kts 14°
2026-05-07 10:11 56.50595 23.82454 6472 ft 293 kts 14°
2026-05-07 10:11 56.52543 23.83447 6036 ft 288 kts 14°
2026-05-07 10:11 56.54440 23.84434 5745 ft 279 kts 15°
2026-05-07 10:11 56.56277 23.85407 5461 ft 270 kts 15°
2026-05-07 10:12 56.58052 23.86351 5206 ft 261 kts 14°
2026-05-07 10:12 56.59769 23.87264 4966 ft 253 kts 15°
2026-05-07 10:12 56.61427 23.88145 4724 ft 244 kts 15°
2026-05-07 10:12 56.63029 23.88997 4490 ft 236 kts 15°
2026-05-07 10:13 56.64584 23.89823 4276 ft 231 kts 16°
2026-05-07 10:13 56.66120 23.90640 4070 ft 229 kts 17°
2026-05-07 10:13 56.67122 23.91171 3932 ft 227 kts 17°
2026-05-07 10:13 56.68633 23.91976 3708 ft 225 kts 18°
2026-05-07 10:14 56.70124 23.92771 3497 ft 222 kts 18°
2026-05-07 10:14 56.71597 23.93558 3280 ft 219 kts 18°
2026-05-07 10:14 56.73060 23.94056 3081 ft 210 kts
2026-05-07 10:14 56.74472 23.94190 2865 ft 197 kts
2026-05-07 10:15 56.75793 23.94361 2681 ft 184 kts
2026-05-07 10:15 56.77014 23.94554 2506 ft 169 kts
2026-05-07 10:15 56.78140 23.94739 2372 ft 155 kts
2026-05-07 10:15 56.79169 23.94911 2268 ft 146 kts
2026-05-07 10:16 56.80182 23.95083 2166 ft 148 kts
2026-05-07 10:16 56.81198 23.95253 1976 ft 145 kts
2026-05-07 10:16 56.82176 23.95416 1784 ft 141 kts
2026-05-07 10:16 56.83148 23.95579 1588 ft 140 kts
2026-05-07 10:17 56.84117 23.95742 1392 ft 140 kts
2026-05-07 10:17 56.85080 23.95902 1203 ft 138 kts
2026-05-07 10:17 56.86042 23.96062 1018 ft 140 kts
2026-05-07 10:17 56.87016 23.96223 798 ft 141 kts
2026-05-07 10:18 56.88011 23.96410 603 ft 145 kts
2026-05-07 10:18 56.88998 23.96557 403 ft 140 kts
2026-05-07 10:18 56.89952 23.96693 224 ft 136 kts
2026-05-07 10:18 56.90887 23.96863 51 ft 134 kts
2026-05-07 10:19 56.91753 23.97019 57 ft 123 kts
2026-05-07 10:19 56.92637 23.97156 261 ft 135 kts
2026-05-07 10:19 56.93605 23.97330 874 ft 148 kts
2026-05-07 10:19 56.94662 23.97457 1605 ft 156 kts
2026-05-07 10:20 56.95789 23.97480 2260 ft 169 kts
2026-05-07 10:20 56.97053 23.97565 2495 ft 191 kts
2026-05-07 10:20 56.98369 23.97417 2495 ft 195 kts 345°
2026-05-07 10:20 56.99530 23.95835 2529 ft 226 kts 310°
2026-05-07 10:21 57.00094 23.93081 2533 ft 244 kts 276°
2026-05-07 10:21 56.99793 23.89819 2532 ft 274 kts 246°
2026-05-07 10:21 56.98593 23.87164 2542 ft 270 kts 210°
2026-05-07 10:21 56.96907 23.85992 2855 ft 255 kts 191°
2026-05-07 10:22 56.95194 23.85271 3205 ft 259 kts 190°
2026-05-07 10:22 56.93413 23.84551 3510 ft 264 kts 190°
2026-05-07 10:22 56.91599 23.83809 3518 ft 269 kts 191°
2026-05-07 10:22 56.89788 23.83048 3527 ft 266 kts 192°
2026-05-07 10:23 56.88155 23.82350 3521 ft 264 kts 191°
2026-05-07 10:23 56.86379 23.81585 3524 ft 262 kts 191°
2026-05-07 10:23 56.84615 23.80818 3516 ft 260 kts 191°
2026-05-07 10:23 56.82858 23.80051 3517 ft 256 kts 191°
2026-05-07 10:24 56.81169 23.79314 3497 ft 243 kts 192°
2026-05-07 10:24 56.79574 23.78618 3515 ft 228 kts 191°
2026-05-07 10:24 56.78062 23.77958 3529 ft 221 kts 192°
2026-05-07 10:24 56.76561 23.77303 3522 ft 223 kts 191°
2026-05-07 10:25 56.75036 23.76811 3513 ft 221 kts 173°
2026-05-07 10:25 56.73660 23.77748 3526 ft 209 kts 134°
2026-05-07 10:25 56.72826 23.79829 3527 ft 202 kts 107°
2026-05-07 10:25 56.72537 23.82289 3529 ft 198 kts 91°
2026-05-07 10:26 56.72416 23.84800 3520 ft 197 kts 92°
2026-05-07 10:26 56.72299 23.87243 3505 ft 189 kts 91°
2026-05-07 10:26 56.72192 23.89524 3488 ft 172 kts 88°
2026-05-07 10:26 56.72450 23.91455 3509 ft 152 kts 57°
2026-05-07 10:27 56.73114 23.92970 3513 ft 159 kts 36°
2026-05-07 10:27 56.74143 23.93537 3413 ft 154 kts 10°
2026-05-07 10:27 56.75177 23.93887 3210 ft 150 kts 16°
2026-05-07 10:27 56.76199 23.94271 2992 ft 149 kts 14°
2026-05-07 10:28 56.77212 23.94538 2787 ft 145 kts 11°
2026-05-07 10:28 56.78204 23.94737 2586 ft 142 kts
2026-05-07 10:28 56.79196 23.94916 2392 ft 144 kts
2026-05-07 10:28 56.80201 23.95087 2187 ft 145 kts
2026-05-07 10:29 56.81194 23.95252 1984 ft 141 kts
2026-05-07 10:29 56.82158 23.95415 1797 ft 141 kts
2026-05-07 10:29 56.83127 23.95575 1592 ft 138 kts
2026-05-07 10:30 56.85078 23.95901 1201 ft 140 kts
2026-05-07 10:30 56.86047 23.96064 989 ft 140 kts
2026-05-07 10:30 56.87017 23.96223 818 ft 142 kts
2026-05-07 10:30 56.88004 23.96388 576 ft 143 kts
2026-05-07 10:31 56.88977 23.96548 381 ft 138 kts
2026-05-07 10:31 56.89918 23.96711 206 ft 138 kts
2026-05-07 10:31 56.90903 23.96868 53 ft 140 kts
2026-05-07 10:31 56.91779 23.97018 42 ft 112 kts
2026-05-07 10:32 56.92437 23.97122 44 ft 78 kts
2026-05-07 10:32 56.92860 23.97195 41 ft 36 kts
2026-05-07 10:32 56.92961 23.97343 44 ft 16 kts 93°
2026-05-07 10:32 56.92959 23.97382 44 ft 0 kts 95°
2026-05-07 10:33 56.92959 23.97388 44 ft 2 kts 95°
2026-05-07 10:33 56.92957 23.97441 42 ft 7 kts 95°
2026-05-07 10:34 56.92955 23.97485 44 ft 9 kts 94°
2026-05-07 10:34 56.92954 23.97499 44 ft 9 kts 97°
2026-05-07 10:34 56.92923 23.97589 43 ft 11 kts 147°
2026-05-07 10:34 56.92842 23.97585 40 ft 12 kts 187°
2026-05-07 10:35 56.92758 23.97574 43 ft 12 kts 184°
2026-05-07 10:35 56.92676 23.97560 43 ft 12 kts 186°
2026-05-07 10:35 56.92609 23.97607 43 ft 11 kts 106°
2026-05-07 10:35 56.92603 23.97754 43 ft 12 kts 93°
2026-05-07 10:36 56.92592 23.97800 41 ft 1 kts 153°
2026-05-07 10:36 56.92574 23.97801 43 ft 4 kts 185°
2026-05-07 10:36 56.92543 23.97796 42 ft 2 kts 184°
2026-05-07 10:36 56.92542 23.97796 42 ft 0 kts 184°